Temp
14 14 14 15 15 13 14 14 15 16 14 16 17 17 15 15 15 16 16 15 15 15 15 15 15 14 14 13 13 12 12 11 10 10 10 9 9 8 7 6 5 4 4 2
13 12 13 14 14 14 14 13 14 14 14 15 14 13 13 13 13 13 13 13 14 14 14 14 13 13 13 12 12 11 10 10 9 9 8 8 7 6 5 4 3 3 1 0
13 10 12 12 12 13 14 13 15 14 17 14 14 12 11 10 11 11 11 12 13 13 14 14 13 13 13 12 12 10 9 8 8 7 7 6 6 5 4 3 2 1 -1 -2
10 9 12 16 12 14 15 14 13 13 13 13 12 9 9 10 11 11 11 12 13 13 13 13 13 13 12 12 11 10 9 7 6 6 5 5 4 3 2 1 -0 0 -1 -1
10 11 12 14 13 13 14 17 14 14 12 10 8 9 7 9 10 11 11 12 12 12 12 12 11 11 11 10 9 8 7 5 5 4 4 3 2 1 0 -0 -0 -1 -1 -1
7 11 13 14 14 12 14 14 13 12 11 10 9 12 11 8 9 10 11 11 11 11 10 10 10 9 9 9 7 6 5 4 3 2 2 1 1 0 -0 -1 -1 -1 -1 -1
7 11 11 12 12 13 14 16 12 11 10 10 11 12 11 8 9 9 9 9 9 9 9 9 8 7 8 6 4 2 1 1 0 -0 -0 -1 -1 -1 -1 -1 -1 -1 -1 -1
7 9 13 11 11 13 14 14 14 11 11 9 12 9 9 8 8 7 8 7 7 8 7 6 5 5 4 3 0 0 0 -0 -0 -1 -1 -1 -1 -1 -1 -1 -1 -1 -2 -2
12 13 12 11 14 15 15 15 13 12 11 12 10 8 8 7 6 6 6 6 5 6 5 3 3 2 2 -0 -0 -0 -0 -0 -0 -1 -1 -1 -1 -1 -1 -2 -2 -3 -3 -3
11 12 11 12 13 13 14 15 14 13 13 12 11 8 6 5 5 4 4 4 4 4 3 1 0 1 0 -0 -1 -1 -1 -1 -1 -1 -2 -2 -2 -3 -3 -3 -3 -4 -4 -5
10 10 9 11 12 14 14 14 13 13 13 13 12 7 6 5 4 3 3 2 2 2 1 -0 -1 -0 -1 -1 -1 -1 -1 -2 -2 -2 -2 -2 -2 -3 -3 -4 -5 -5 -6 -8
11 14 14 14 16 13 13 13 13 13 11 10 11 9 6 4 3 3 2 1 1 0 -0 -1 -1 -1 -1 -1 -2 -2 -2 -2 -2 -2 -2 -3 -3 -3 -4 -5 -5 -6 -7 -8
13 14 13 14 14 13 13 13 12 12 12 11 7 8 6 4 2 2 1 0 0 -0 -1 -1 -1 -1 -2 -2 -2 -2 -2 -2 -3 -3 -3 -4 -4 -5 -6 -6 -6 -7 -8 -9
12 12 10 11 10 11 12 11 10 10 9 9 7 5 4 3 0 0 -0 -1 -1 -1 -1 -2 -2 -2 -2 -3 -3 -3 -3 -3 -4 -4 -5 -5 -6 -6 -7 -8 -9 -9 -9 -10
9 9 9 12 10 9 8 9 8 7 6 5 4 4 3 1 -0 -1 -1 -2 -2 -2 -2 -3 -3 -3 -3 -3 -3 -4 -4 -5 -5 -6 -6 -7 -7 -8 -8 -9 -10 -10 -10 -11
5 6 7 7 8 7 6 5 7 4 3 3 2 1 1 0 -0 -1 -2 -2 -2 -2 -2 -3 -3 -3 -4 -4 -4 -5 -5 -6 -6 -7 -8 -8 -9 -9 -10 -10 -11 -11 -12 -12
6 3 3 3 2 2 2 3 4 3 2 1 1 0 -1 -1 -2 -2 -2 -3 -3 -3 -3 -4 -4 -4 -4 -5 -5 -6 -7 -7 -8 -9 -9 -10 -10 -11 -11 -12 -12 -13 -13 -14
6 8 6 5 3 3 2 3 3 2 1 0 -1 -2 -2 -2 -2 -2 -2 -3 -3 -4 -4 -5 -5 -5 -6 -6 -7 -7 -8 -9 -9 -10 -10 -11 -11 -12 -12 -13 -14 -14 -14 -14
5 5 5 3 2 2 1 1 0 0 -1 -2 -2 -3 -3 -4 -3 -2 -3 -4 -4 -5 -5 -6 -6 -6 -7 -7 -8 -9 -9 -10 -10 -11 -11 -12 -12 -13 -14 -14 -15 -15 -15 -15
3 3 3 1 1 1 0 -1 -2 -2 -2 -3 -3 -4 -4 -3 -3 -4 -4 -5 -6 -6 -7 -7 -7 -8 -8 -9 -9 -10 -11 -11 -12 -12 -12 -13 -14 -14 -15 -15 -16 -16 -16 -16
0 -0 -0 -1 -1 -1 -1 -2 -2 -3 -3 -3 -4 -4 -3 -4 -5 -5 -6 -6 -7 -7 -8 -9 -9 -9 -10 -10 -11 -11 -12 -12 -13 -13 -14 -14 -15 -16 -16 -16 -16 -17 -17 -17
-1 -1 -2 -2 -2 -3 -3 -3 -3 -3 -4 -5 -4 -4 -5 -6 -7 -7 -8 -8 -9 -9 -10 -10 -11 -11 -11 -12 -13 -13 -13 -14 -14 -15 -15 -16 -16 -17 -17 -17 -17 -17 -18 -18
-3 -3 -3 -3 -3 -4 -4 -4 -5 -5 -5 -6 -6 -6 -7 -7 -8 -9 -9 -10 -10 -11 -11 -12 -13 -13 -13 -14 -14 -14 -15 -15 -16 -16 -17 -17 -18 -18 -18 -18 -18 -18 -18 -18
-3 -3 -4 -4 -4 -5 -6 -7 -7 -7 -7 -8 -8 -8 -9 -9 -9 -10 -10 -11 -12 -13 -13 -14 -14 -15 -15 -15 -15 -16 -16 -17 -17 -18 -18 -18 -18 -18 -18 -19 -19 -19 -19 -19
-5 -5 -6 -6 -6 -7 -8 -8 -8 -8 -8 -8 -9 -9 -10 -10 -11 -11 -12 -13 -14 -14 -15 -15 -15 -15 -16 -16 -17 -17 -18 -18 -19 -19 -19 -19 -19 -19 -19 -19 -19 -19 -19 -19
-7 -7 -8 -8 -8 -9 -9 -9 -9 -9 -10 -10 -10 -11 -11 -12 -12 -13 -14 -14 -15 -15 -16 -16 -16 -17 -17 -18 -19 -19 -19 -19 -20 -20 -20 -19 -19 -20 -20 -20 -20 -19 -19 -20
-8 -9 -9 -9 -10 -10 -10 -10 -10 -11 -11 -11 -12 -12 -13 -13 -14 -14 -15 -16 -16 -17 -17 -17 -18 -18 -19 -19 -20 -20 -20 -20 -20 -20 -20 -20 -20 -20 -20 -20 -20 -20 -20 -20
Height
1467 1466 1468 1468 1470 1477 1477 1475 1479 1472 1479 1467 1463 1463 1462 1461 1461 1460 1460 1461 1464 1466 1469 1472 1475 1478 1482 1484 1487 1489 1491 1492 1494 1496 1498 1500 1502 1505 1508 1510 1512 1514 1513 1514
1468 1469 1469 1470 1466 1468 1471 1473 1473 1472 1470 1460 1459 1461 1461 1460 1460 1459 1459 1460 1462 1465 1467 1469 1473 1475 1478 1480 1482 1484 1485 1487 1489 1492 1494 1496 1499 1502 1505 1508 1511 1510 1515 1515
1469 1474 1469 1474 1467 1464 1463 1463 1460 1466 1454 1456 1457 1459 1459 1460 1460 1461 1462 1462 1463 1465 1468 1470 1472 1475 1477 1479 1480 1481 1482 1484 1486 1489 1491 1494 1496 1498 1501 1501 1503 1506 1504 1505
1472 1477 1476 1449 1451 1451 1452 1452 1454 1454 1452 1453 1455 1458 1459 1460 1459 1462 1463 1463 1465 1467 1469 1472 1474 1476 1477 1478 1479 1480 1481 1483 1484 1486 1488 1490 1492 1494 1496 1498 1499 1501 1502 1504
1468 1466 1457 1449 1449 1450 1452 1441 1442 1444 1447 1452 1454 1457 1461 1460 1460 1461 1463 1464 1466 1468 1471 1472 1474 1475 1477 1478 1479 1480 1481 1482 1483 1485 1487 1488 1490 1492 1494 1498 1499 1499 1501 1500
1471 1463 1458 1439 1435 1439 1444 1446 1434 1438 1442 1447 1452 1454 1456 1459 1460 1461 1463 1465 1467 1469 1471 1472 1473 1475 1477 1478 1479 1480 1481 1483 1485 1486 1488 1490 1492 1494 1496 1496 1496 1496 1495 1493
1464 1455 1445 1432 1433 1436 1452 1434 1428 1430 1435 1441 1444 1445 1449 1455 1458 1461 1463 1464 1466 1469 1471 1472 1474 1476 1476 1478 1479 1482 1484 1486 1488 1489 1491 1492 1492 1493 1493 1493 1492 1491 1490 1489
1458 1456 1444 1426 1434 1436 1422 1423 1424 1428 1431 1437 1440 1444 1448 1453 1456 1459 1462 1464 1467 1468 1470 1472 1475 1477 1477 1479 1482 1485 1486 1487 1488 1489 1489 1490 1490 1490 1490 1489 1488 1487 1484 1482
1426 1423 1415 1416 1413 1415 1417 1419 1420 1424 1429 1435 1438 1443 1447 1451 1456 1460 1462 1464 1467 1468 1469 1473 1476 1478 1479 1481 1484 1485 1487 1488 1488 1489 1489 1489 1488 1488 1487 1485 1484 1482 1479 1475
1419 1411 1411 1411 1412 1412 1413 1416 1416 1420 1425 1432 1434 1440 1444 1449 1454 1458 1462 1464 1467 1469 1471 1473 1477 1478 1479 1482 1484 1485 1486 1487 1487 1487 1487 1487 1486 1484 1483 1481 1478 1475 1472 1468
1412 1408 1409 1407 1405 1407 1410 1413 1415 1419 1424 1427 1432 1438 1442 1447 1452 1456 1460 1463 1467 1469 1471 1474 1476 1478 1479 1482 1484 1485 1486 1486 1486 1485 1484 1483 1482 1480 1478 1476 1473 1469 1466 1463
1403 1390 1392 1393 1397 1403 1405 1409 1412 1415 1421 1426 1430 1433 1440 1446 1451 1455 1458 1463 1466 1469 1471 1473 1476 1478 1479 1481 1483 1483 1484 1483 1482 1481 1480 1478 1476 1475 1473 1470 1467 1465 1462 1458
1386 1389 1390 1392 1393 1397 1401 1406 1409 1413 1416 1419 1427 1431 1437 1442 1449 1453 1458 1461 1465 1467 1470 1472 1475 1477 1478 1479 1480 1480 1479 1479 1478 1477 1475 1473 1470 1467 1464 1462 1460 1458 1455 1451
1387 1390 1392 1391 1392 1395 1397 1401 1406 1411 1415 1420 1424 1431 1435 1440 1447 1452 1456 1460 1463 1466 1469 1472 1474 1475 1476 1477 1477 1477 1476 1475 1474 1473 1471 1468 1465 1462 1459 1456 1452 1450 1447 1444
1383 1387 1388 1385 1389 1393 1398 1400 1403 1407 1412 1417 1423 1427 1432 1437 1444 1449 1455 1459 1462 1466 1468 1471 1473 1474 1474 1474 1474 1473 1472 1471 1470 1468 1466 1464 1461 1458 1455 1452 1448 1445 1442 1439
1386 1387 1388 1389 1384 1390 1395 1399 1400 1405 1411 1416 1421 1427 1431 1437 1442 1447 1453 1458 1462 1465 1468 1470 1471 1471 1471 1471 1471 1470 1468 1467 1466 1464 1462 1460 1457 1454 1451 1448 1445 1441 1437 1433
1384 1393 1393 1393 1394 1395 1398 1401 1403 1406 1412 1416 1421 1427 1431 1436 1441 1447 1451 1455 1459 1463 1465 1467 1468 1468 1468 1468 1467 1466 1465 1463 1462 1460 1458 1456 1453 1450 1448 1445 1441 1437 1434 1430
1388 1385 1393 1397 1398 1397 1401 1406 1408 1410 1413 1419 1425 1430 1435 1439 1441 1446 1450 1454 1457 1460 1463 1464 1465 1465 1465 1464 1463 1462 1461 1460 1458 1456 1454 1451 1449 1447 1444 1441 1437 1433 1429 1426
1385 1389 1391 1395 1397 1399 1403 1406 1409 1412 1417 1423 1425 1433 1441 1444 1448 1448 1449 1453 1458 1460 1461 1462 1462 1462 1461 1460 1460 1459 1457 1456 1454 1452 1450 1447 1445 1443 1440 1436 1433 1429 1425 1421
1378 1389 1391 1395 1399 1402 1405 1411 1415 1417 1421 1426 1431 1435 1440 1446 1448 1452 1452 1453 1457 1458 1459 1460 1460 1459 1458 1457 1456 1455 1453 1452 1450 1447 1444 1443 1441 1438 1435 1432 1429 1425 1420 1416
1392 1394 1396 1400 1404 1408 1411 1415 1419 1424 1428 1431 1434 1437 1441 1445 1449 1452 1452 1453 1455 1456 1457 1457 1456 1456 1455 1453 1452 1450 1449 1447 1444 1442 1440 1438 1436 1433 1430 1427 1424 1420 1416 1412
1399 1400 1404 1407 1410 1414 1419 1423 1426 1429 1433 1435 1439 1441 1443 1446 1449 1450 1451 1452 1453 1454 1454 1454 1453 1452 1451 1449 1448 1446 1444 1442 1440 1438 1435 1433 1430 1427 1425 1422 1418 1415 1411 1407
1407 1410 1413 1415 1418 1421 1426 1429 1432 1435 1438 1441 1443 1445 1446 1447 1448 1450 1451 1451 1452 1452 1451 1450 1449 1448 1446 1445 1444 1442 1439 1437 1435 1433 1430 1428 1425 1422 1419 1417 1413 1410 1407 1403
1417 1419 1421 1423 1425 1427 1430 1434 1438 1442 1444 1445 1446 1447 1448 1448 1449 1449 1450 1450 1450 1449 1448 1447 1445 1443 1442 1441 1439 1437 1434 1433 1430 1428 1425 1422 1420 1417 1414 1411 1408 1405 1401 1398
1424 1427 1429 1431 1432 1434 1438 1441 1445 1447 1448 1448 1448 1448 1448 1448 1448 1447 1447 1446 1446 1445 1444 1443 1441 1439 1437 1435 1434 1432 1429 1427 1425 1423 1420 1418 1415 1412 1409 1406 1403 1399 1396 1392
1431 1433 1435 1437 1439 1441 1444 1446 1448 1448 1449 1449 1449 1449 1448 1447 1446 1445 1445 1444 1443 1442 1440 1438 1436 1434 1432 1431 1429 1427 1425 1422 1420 1417 1415 1412 1410 1407 1404 1401 1398 1394 1391 1387
1437 1439 1440 1442 1444 1446 1447 1448 1449 1449 1449 1449 1449 1448 1447 1445 1444 1443 1442 1440 1439 1437 1435 1433 1431 1429 1427 1425 1423 1422 1420 1417 1415 1412 1410 1407 1405 1402 1399 1396 1393 1389 1386 1382
Wind_Speed
5 5 5 6 6 11 9 6 7 8 9 9 7 6 8 11 11 8 5 4 4 4 4 4 5 7 10 15 16 17 18 19 20 20 19 19 22 23 24 25 26 24 23 23
4 3 5 4 7 10 9 3 8 7 8 10 6 7 4 3 2 4 5 6 6 5 4 3 1 2 4 7 9 10 12 14 16 18 19 21 22 22 21 21 23 24 22 21
4 1 3 5 7 11 5 5 6 8 12 4 5 5 5 8 12 15 17 19 18 16 13 11 8 6 4 3 4 7 9 12 15 18 19 20 21 22 21 23 25 23 21 20
3 1 6 4 1 2 11 6 9 7 6 6 3 7 9 12 18 18 18 19 19 17 14 11 8 6 5 5 6 7 7 9 12 13 13 14 16 17 19 22 24 23 30 29
5 5 4 3 5 7 7 14 10 13 5 6 15 12 6 12 16 18 17 17 16 13 11 10 9 9 8 8 8 7 5 4 4 5 6 9 10 13 17 18 21 20 23 25
3 5 10 5 4 8 5 12 8 13 10 18 16 7 6 15 16 17 16 15 14 14 12 10 10 8 6 8 7 7 8 7 5 3 2 5 7 10 14 15 18 23 24 20
3 4 6 6 5 13 6 13 12 21 21 25 9 3 23 20 18 16 15 15 14 14 11 10 9 7 8 10 12 13 12 9 6 4 2 4 9 13 15 17 12 14 18 20
3 2 8 11 8 10 7 3 12 21 28 23 13 19 27 22 19 17 16 16 15 15 15 14 13 9 13 13 13 10 6 2 1 3 4 4 4 6 9 13 16 18 21 23
9 7 3 25 7 22 7 8 10 25 30 29 25 27 26 24 21 19 18 18 18 17 18 16 13 11 10 11 8 5 4 4 2 3 4 6 8 10 12 15 18 21 24 28
3 5 8 15 24 12 17 13 11 25 35 28 27 29 28 26 24 23 21 20 19 17 17 17 13 11 10 10 8 5 4 3 3 5 7 10 12 14 15 18 21 23 25 27
3 5 3 17 21 22 18 16 16 23 32 29 28 30 28 28 26 25 23 21 19 17 17 16 13 11 10 8 5 2 3 5 7 9 11 13 15 17 18 19 20 22 22 22
6 17 11 14 30 24 20 19 21 27 28 27 27 30 29 28 26 25 24 21 19 17 16 15 12 10 8 5 3 3 5 8 10 13 15 17 18 19 20 21 21 21 21 21
3 9 21 11 18 25 23 23 25 27 29 31 28 29 30 30 28 25 23 21 19 17 15 13 10 6 4 3 4 6 8 11 13 15 18 20 22 23 26 25 25 24 23 23
11 10 9 16 12 23 25 26 26 24 24 26 30 30 30 31 29 26 24 21 18 16 14 10 7 4 3 3 5 8 10 13 15 17 18 20 21 23 24 25 27 26 26 26
16 16 12 21 16 24 24 26 27 28 29 31 30 32 32 32 30 26 23 20 17 14 11 8 5 2 2 4 7 10 12 14 15 16 17 19 20 22 23 25 26 28 29 28
7 6 7 18 25 27 28 29 31 32 32 33 34 33 31 30 28 25 22 17 13 12 9 6 3 0 3 6 9 11 13 14 15 16 17 18 20 21 23 24 25 26 27 29
10 3 9 13 20 23 25 26 29 33 33 34 34 32 31 29 28 24 19 17 13 10 7 4 1 2 5 8 10 12 13 14 15 15 17 18 20 21 22 23 23 24 26 26
1 3 7 12 23 25 24 24 27 29 31 31 31 28 27 26 20 21 17 16 13 9 6 3 2 5 7 9 11 12 13 13 14 15 17 18 19 20 21 21 22 23 25 25
4 6 12 16 20 24 25 26 27 27 29 28 29 27 20 16 14 17 18 14 10 7 4 3 5 7 9 10 11 12 12 13 14 15 16 17 18 19 19 20 21 22 23 25
13 11 13 19 20 21 24 23 25 26 27 26 24 21 17 15 17 16 14 11 8 5 4 5 7 9 10 11 12 13 13 13 14 15 16 17 18 18 18 19 20 22 23 24
15 15 17 18 19 19 20 22 23 25 23 17 15 16 18 19 17 13 11 8 6 5 5 7 8 10 12 13 13 13 13 14 14 15 16 17 17 17 18 19 21 22 23 24
14 15 16 19 22 23 21 20 19 18 16 15 16 18 18 18 15 11 8 5 5 6 7 9 11 12 12 12 13 13 14 14 15 15 16 17 17 18 19 20 21 22 23 24
18 21 22 22 22 22 19 15 13 13 15 15 14 14 12 10 8 5 4 5 6 7 9 11 13 14 14 13 14 14 15 15 15 15 16 16 17 19 20 20 21 22 23 24
20 19 20 19 18 17 18 16 14 12 12 11 9 7 4 3 3 4 5 6 8 9 11 13 15 15 15 15 15 15 16 16 16 16 16 17 18 19 20 20 21 22 22 23
20 19 16 14 14 15 14 12 10 8 5 3 2 3 5 6 7 7 7 8 10 12 14 16 17 17 17 16 16 16 16 16 16 16 17 18 18 19 19 20 21 22 23 23
18 18 17 15 14 11 9 6 4 4 2 0 3 5 7 8 8 8 9 11 12 14 16 17 18 18 17 16 16 17 17 17 17 17 18 19 19 19 19 20 21 22 22 22
20 18 17 16 14 11 7 5 3 2 4 5 7 8 9 10 10 12 12 14 15 16 17 18 18 17 16 16 16 17 18 18 18 19 19 19 19 19 20 21 21 22 22 22
Wind_Direction
228 210 181 196 187 179 199 200 192 238 208 251 254 266 286 301 301 293 295 260 249 238 235 245 255 254 252 259 272 285 287 279 270 270 265 259 251 245 243 235 231 234 227 224
199 122 190 223 223 197 209 216 246 246 246 240 245 258 283 323 345 82 102 115 115 110 109 115 155 248 272 282 293 300 300 292 281 271 260 251 244 248 243 238 236 229 228 224
220 108 120 275 199 200 196 206 196 223 241 182 212 199 151 126 118 106 101 101 101 98 96 93 87 75 57 359 320 308 296 283 275 270 263 258 253 248 245 231 228 223 215 221
153 125 222 237 83 204 218 237 216 258 235 224 184 133 133 138 130 118 110 105 100 96 91 85 75 56 26 354 333 321 303 282 275 275 272 264 254 246 237 231 219 235 252 257
152 200 300 212 194 177 178 254 216 228 214 160 140 122 96 144 138 124 116 111 108 105 99 94 85 68 48 34 20 8 356 334 313 295 270 255 245 225 218 226 264 259 261 279
143 190 223 182 203 156 119 271 196 195 182 160 157 169 164 156 140 131 128 124 124 120 111 98 81 69 51 53 52 51 50 54 61 83 187 205 223 231 264 276 268 277 287 287
157 220 285 242 144 140 156 260 194 193 177 167 180 185 162 158 147 144 135 127 122 122 116 101 91 91 86 91 90 86 85 85 91 113 177 262 279 280 276 282 292 293 291 291
114 143 262 161 119 175 214 200 220 191 180 171 168 150 154 157 152 144 138 133 134 131 117 109 101 103 104 101 98 97 96 97 258 266 275 290 304 309 307 303 302 301 299 297
190 205 198 187 205 200 199 223 211 194 181 175 158 157 160 157 152 146 145 139 134 129 122 116 114 110 111 112 120 127 125 111 77 19 349 333 325 320 315 312 310 309 307 305
126 209 220 212 222 216 224 235 228 199 182 181 169 166 163 159 154 150 145 141 138 134 129 128 127 122 111 115 113 106 90 59 15 347 337 332 329 325 322 318 313 311 311 309
260 265 291 241 227 226 219 218 203 187 187 188 180 169 166 160 156 153 149 145 145 142 136 130 130 124 119 116 106 75 20 358 347 340 334 330 327 325 323 323 322 320 319 318
211 209 193 227 222 212 206 201 192 185 179 183 185 174 168 160 159 157 153 151 149 143 139 133 134 129 125 115 84 22 358 347 343 339 335 331 329 329 328 328 329 326 320 315
235 235 211 229 201 201 199 196 191 189 189 180 175 174 168 161 160 157 154 154 152 147 142 140 138 131 115 76 20 355 349 345 341 338 335 335 337 338 336 336 334 332 333 329
243 202 191 200 199 190 193 186 185 181 179 178 170 167 166 161 156 159 158 156 153 150 146 145 141 133 93 22 355 347 345 342 340 338 339 339 338 338 337 337 336 336 336 333
194 211 253 203 190 187 187 181 173 171 169 164 167 167 167 161 159 159 156 154 151 150 149 151 149 128 31 354 347 343 341 341 341 341 340 339 339 338 337 336 335 333 331 330
207 207 199 194 177 180 181 178 175 165 166 164 164 164 165 163 158 154 150 149 160 156 157 161 164 104 351 343 339 338 339 339 339 339 340 340 339 338 338 336 332 331 332 332
149 149 177 177 175 170 172 173 173 165 164 165 166 163 161 159 153 149 157 161 166 169 167 168 195 335 331 330 334 337 336 335 337 340 339 339 338 337 334 332 330 330 331 333
109 123 232 220 185 174 170 173 171 167 167 166 161 158 158 154 155 159 161 168 170 172 179 201 284 317 324 329 332 333 333 334 335 336 335 335 335 332 329 329 330 330 331 332
179 189 182 189 188 179 171 169 169 165 158 158 151 149 152 146 161 170 165 165 177 192 205 256 302 319 322 325 327 328 329 330 330 330 331 333 331 328 328 329 330 330 331 332
126 158 164 169 172 176 164 159 156 153 150 150 151 148 149 166 171 172 167 175 191 213 245 288 306 317 321 320 321 321 324 325 326 327 330 328 326 326 328 329 329 329 331 332
132 142 147 151 149 149 151 147 145 145 147 146 141 151 169 168 170 179 180 189 206 242 274 298 313 315 314 314 316 317 319 322 324 325 324 324 325 326 327 328 329 330 331 331
122 125 127 132 132 129 134 141 144 140 140 147 167 170 171 171 177 183 193 216 235 267 292 309 315 316 316 315 314 315 318 320 321 321 322 323 324 327 328 328 329 329 330 330
115 119 122 123 124 123 125 125 129 145 154 161 165 167 174 176 178 194 234 255 273 291 305 314 318 321 319 315 313 315 316 317 318 318 318 321 324 326 326 327 328 329 329 329
107 109 112 117 122 124 122 127 142 149 154 150 153 156 168 189 238 279 285 286 296 305 312 316 318 317 313 310 311 313 314 315 314 315 317 320 322 322 322 323 325 326 327 326
106 107 109 111 112 112 121 126 135 135 144 162 193 236 257 272 283 286 286 294 302 308 309 312 314 313 309 306 307 310 314 316 314 313 315 317 317 317 319 322 324 325 325 325
96 96 98 99 99 105 112 127 140 136 128 327 307 306 306 308 311 308 304 305 306 305 306 309 310 309 307 305 306 309 314 315 313 312 312 313 313 314 317 320 322 323 323 324
94 96 96 95 93 91 91 88 69 24 338 323 318 318 312 307 303 302 303 303 304 306 309 312 312 311 309 307 308 310 311 311 310 310 309 309 310 312 315 318 320 321 321 322